GW2918 Weather Reports


Display with metric or nautical units.
time (UTC)temp
F
wind
direction
speed
MPH
gust
MPH
rain 1hr
in
rain 24hr
in
rain mn
in
humidity
%
barometer
mb
20260901224722 76 130 0.0 3.0 0.00 0.03 0.03 88 1017.4
20260901223720 77 227 1.0 3.0 0.00 0.03 0.03 94 1017.5
20260901222717 76 158 1.0 1.0 0.00 0.03 0.03 94 1017.4
20260901221714 76 202 0.0 4.0 0.00 0.03 0.03 95 1017.8
20260901220709 76 220 2.0 2.0 0.00 0.03 0.03 95 1017.5
20260901215707 76 152 0.0 2.0 0.00 0.03 0.03 94 1017.1
20260901214706 77 141 0.0 3.0 0.00 0.03 0.03 93 1016.8
20260901213700 77 344 3.0 5.0 0.00 0.03 0.03 91 1016.6
20260901212700 78 295 4.0 5.0 0.00 0.03 0.03 91 1017.0
20260901211656 79 86 1.0 7.0 0.00 0.03 0.03 90 1016.5
20260901210653 81 52 1.0 3.0 0.00 0.03 0.03 82 1016.7
20260901205651 82 345 2.0 4.0 0.00 0.03 0.03 83 1017.0
20260901204647 84 333 2.0 2.0 0.00 0.03 0.03 78 1016.6
20260901203642 83 3 1.0 4.0 0.00 0.03 0.03 78 1016.5
20260901202642 83 68 2.0 2.0 0.00 0.03 0.03 81 1016.4
20260901201640 83 46 2.0 3.0 0.00 0.03 0.03 81 1016.8
20260901200639 83 345 2.0 5.0 0.00 0.03 0.03 82 1016.8
20260901195638 83 17 3.0 5.0 0.00 0.03 0.03 81 1016.8
20260901194633 85 25 1.0 4.0 0.00 0.03 0.03 79 1016.9
20260901193630 85 283 5.0 6.0 0.00 0.03 0.03 76 1016.9
20260901192625 85 195 2.0 4.0 0.00 0.03 0.03 80 1016.9
20260901191622 85 246 2.0 5.0 0.00 0.03 0.03 79 1017.0
20260901190620 84 221 3.0 7.0 0.00 0.03 0.03 83 1017.0
20260901185617 83 193 1.0 6.0 0.00 0.03 0.03 80 1017.0
20260901184617 84 280 3.0 6.0 0.00 0.03 0.03 78 1017.1
20260901183614 83 213 4.0 10.0 0.00 0.03 0.03 81 1017.1
20260901182611 83 264 2.0 3.0 0.00 0.03 0.03 84 1017.1
20260901181610 81 198 3.0 7.0 0.00 0.03 0.03 83 1017.1
20260901180609 80 300 2.0 4.0 0.00 0.03 0.03 87 1017.2
20260901175608 81 280 0.0 4.0 0.00 0.03 0.03 83 1017.0
20260901174605 80 323 2.0 4.0 0.00 0.03 0.03 88 1017.0
20260901173601 79 269 4.0 6.0 0.00 0.03 0.03 86 1017.1
20260901172558 79 208 2.0 3.0 0.00 0.03 0.03 87 1017.1
20260901171555 80 227 3.0 3.0 0.00 0.03 0.03 87 1017.4
20260901170555 79 216 2.0 6.0 0.00 0.03 0.03 86 1016.9
20260901165549 79 189 2.0 6.0 0.00 0.03 0.03 88 1017.0
20260901164546 79 4 0.0 3.0 0.00 0.03 0.03 86 1017.2
20260901163542 77 204 2.0 7.0 0.00 0.03 0.03 90 1017.4
20260901162542 77 210 4.0 4.0 0.00 0.03 0.03 90 1017.3
20260901161541 77 202 4.0 7.0 0.00 0.03 0.03 89 1017.3
20260901160537 77 233 3.0 5.0 0.00 0.03 0.03 90 1017.2
20260901155537 78 247 2.0 4.0 0.00 0.03 0.03 90 1017.5
20260901154532 77 208 4.0 6.0 0.00 0.03 0.03 90 1017.5
20260901153528 76 214 2.0 6.0 0.00 0.03 0.03 91 1017.8
20260901152528 76 216 3.0 5.0 0.00 0.03 0.03 91 1017.6
20260901151523 77 205 2.0 6.0 0.00 0.03 0.03 89 1017.5
20260901150520 76 227 3.0 6.0 0.00 0.03 0.03 91 1017.8
20260901145518 75 179 4.0 6.0 0.00 0.03 0.03 93 1017.5
20260901144514 75 308 1.0 5.0 0.00 0.03 0.03 93 1017.6
20260901143510 73 224 0.0 7.0 0.00 0.03 0.03 97 1017.5
20260901142507 71 221 3.0 5.0 0.00 0.03 0.03 99 1017.8
20260901141502 70 214 2.0 4.0 0.00 0.03 0.03 99 1017.7
20260901140501 70 188 2.0 5.0 0.00 0.03 0.03 99 1017.6
20260901135501 70 168 2.0 5.0 0.00 0.03 0.03 99 1017.7
20260901134459 70 207 2.0 4.0 0.00 0.03 0.03 99 1017.4
20260901133458 70 193 1.0 4.0 0.00 0.03 0.03 99 1017.6
20260901132457 69 211 5.0 7.0 0.00 0.03 0.03 99 1017.5
20260901131456 69 207 3.0 4.0 0.00 0.03 0.03 99 1017.9
20260901130452 69 211 5.0 5.0 0.02 0.03 0.03 99 1017.8
20260901125450 69 147 3.0 5.0 0.00 0.03 0.03 99 1018.1
20260901124446 69 185 1.0 4.0 0.05 0.03 0.03 99 1017.9
20260901123441 69 222 3.0 4.0 0.00 0.02 0.02 99 1018.1
20260901122439 69 261 2.0 5.0 0.05 0.02 0.02 99 1017.9
20260901121439 68 200 2.0 5.0 0.00 0.01 0.01 99 1018.0
20260901120434 68 220 2.0 4.0 0.00 0.01 0.01 99 1018.0
20260901115430 68 217 2.0 3.0 0.00 0.01 0.01 99 1018.0
20260901114429 68 177 1.0 2.0 0.02 0.01 0.01 99 1017.9
20260901113426 68 249 0.0 5.0 0.00 0.01 0.01 99 1017.7
20260901112422 68 88 2.0 4.0 0.00 0.01 0.01 99 1017.6
20260901111422 68 213 8.0 9.0 0.00 0.01 0.01 99 1017.9
20260901110416 68 234 3.0 5.0 0.00 0.01 0.01 99 1017.9
20260901105414 68 348 0.0 5.0 0.00 0.01 0.01 99 1017.9
20260901104410 68 211 3.0 4.0 0.00 0.01 0.01 99 1017.7
20260901103405 68 205 2.0 3.0 0.00 0.01 0.01 99 1017.8
20260901102400 68 142 1.0 3.0 0.00 0.01 0.01 99 1017.9
20260901101356 68 235 4.0 4.0 0.00 0.01 0.01 99 1017.5
20260901100356 68 221 2.0 5.0 0.00 0.01 0.01 99 1017.7
20260901095353 68 194 0.0 2.0 0.00 0.01 0.01 99 1017.6
20260901094348 68 89 0.0 2.0 0.00 0.01 0.01 99 1017.8
20260901093348 68 212 2.0 4.0 0.00 0.01 0.01 99 1017.8
20260901092345 68 192 0.0 4.0 0.00 0.01 0.01 99 1017.9
20260901091341 68 143 0.0 3.0 0.00 0.01 0.01 99 1018.3
20260901090341 68 210 3.0 4.0 0.00 0.01 0.01 99 1018.3
20260901085338 68 188 0.0 4.0 0.00 0.01 0.01 99 1018.3
20260901084337 68 200 0.0 2.0 0.02 0.01 0.01 99 1018.3
20260901083332 68 242 2.0 3.0 0.00 0.00 0.00 99 1018.4
20260901082332 68 196 0.0 2.0 0.00 0.00 0.00 99 1018.5
20260901081327 68 242 2.0 3.0 0.00 0.00 0.00 99 1018.5
20260901080328 68 205 1.0 3.0 0.00 0.00 0.00 99 1018.5
20260901075323 68 210 2.0 2.0 0.00 0.00 0.00 99 1018.6
20260901074318 68 225 0.0 2.0 0.00 0.00 0.00 99 1018.6
20260901073315 68 191 2.0 3.0 0.00 0.00 0.00 99 1018.9
20260901072311 68 213 2.0 3.0 0.00 0.00 0.00 99 1018.7
20260901071310 68 217 0.0 4.0 0.00 0.00 0.00 99 1018.9
20260901070305 68 156 0.0 2.0 0.00 0.00 0.00 99 1018.7
20260901065306 68 206 2.0 3.0 0.00 0.00 0.00 99 1019.0
20260901064303 68 202 2.0 3.0 0.00 0.00 0.00 99 1019.0
20260901063302 67 138 0.0 4.0 0.02 0.00 0.00 99 1018.8
20260901062259 67 187 2.0 2.0 0.00 0.00 0.00 99 1019.1
20260901061255 67 151 1.0 3.0 0.00 0.00 0.00 99 1019.0
20260901060251 67 217 0.0 3.0 0.00 0.00 0.00 99 1019.1
20260901055248 67 253 1.0 3.0 0.00 0.00 0.00 99 1019.3
20260901054247 67 197 1.0 2.0 0.00 0.00 0.00 99 1019.0
20260901053243 67 214 2.0 3.0 0.00 0.00 0.00 99 1019.5
20260901052240 67 175 1.0 2.0 0.00 0.00 0.00 99 1019.5
20260901051240 67 228 0.0 3.0 0.00 0.00 0.00 99 1019.2
20260901050236 67 166 1.0 2.0 0.00 0.00 0.00 99 1019.4
20260901045232 67 164 1.0 2.0 0.00 0.00 0.00 99 1019.4
20260901044229 67 218 2.0 2.0 0.00 0.00 0.00 99 1019.5
20260901043226 67 113 0.0 2.0 0.00 0.00 0.00 99 1019.5
20260901042226 67 175 0.0 3.0 0.00 0.00 0.00 99 1019.7
20260901041222 67 144 1.0 3.0 0.00 0.00 0.00 99 1019.6
20260901040222 67 164 1.0 2.0 0.00 0.00 0.00 99 1019.7
20260901035220 67 294 0.0 2.0 0.00 0.13 0.13 99 1019.5
20260901034220 67 217 0.0 3.0 0.00 0.13 0.13 99 1019.4
20260901033219 67 187 0.0 3.0 0.00 0.13 0.13 99 1019.5
20260901032218 67 209 3.0 4.0 0.00 0.13 0.13 99 1019.4
20260901031215 67 193 2.0 3.0 0.00 0.13 0.13 99 1019.4
20260901030210 67 196 2.0 2.0 0.00 0.13 0.13 99 1019.3
20260901025205 67 230 2.0 3.0 0.00 0.13 0.13 99 1019.6
20260901024204 67 210 0.0 3.0 0.02 0.13 0.13 99 1019.5
20260901023204 67 144 1.0 4.0 0.00 0.12 0.12 99 1019.8
20260901022200 67 235 3.0 6.0 0.02 0.12 0.12 99 1019.9
20260901021156 67 185 1.0 2.0 0.05 0.11 0.11 99 1020.4
20260901020153 67 190 3.0 5.0 0.02 0.11 0.11 99 1020.3
20260901015148 67 210 0.0 2.0 0.02 0.10 0.10 99 1020.4
20260901014144 67 195 0.0 4.0 0.00 0.10 0.10 99 1020.4
20260901013142 67 184 1.0 3.0 0.07 0.10 0.10 99 1020.3
20260901012137 67 195 3.0 3.0 0.02 0.09 0.09 99 1020.4
20260901011132 67 217 1.0 3.0 0.00 0.08 0.08 99 1020.3
20260901010132 67 206 2.0 4.0 0.00 0.08 0.08 99 1020.1
20260901005127 67 155 1.0 4.0 0.00 0.08 0.08 99 1020.4
20260901004127 67 197 3.0 3.0 0.00 0.08 0.08 99 1020.1
20260901003127 67 212 3.0 4.0 0.00 0.08 0.08 99 1019.7
20260901002122 67 211 5.0 5.0 0.00 0.08 0.08 99 1019.4
20260901001118 67 207 4.0 5.0 0.00 0.08 0.08 99 1019.4
20260901000115 67 171 4.0 10.0 0.00 0.08 0.08 99 1019.7
20260831235116 67 161 1.0 3.0 0.00 0.08 0.08 99 1019.8
20260831234111 68 195 2.0 7.0 0.00 0.08 0.08 99 1019.6
20260831233107 67 206 2.0 5.0 0.00 0.08 0.08 99 1019.8
20260831232104 68 199 4.0 6.0 0.00 0.08 0.08 99 1019.8
20260831231101 68 169 0.0 4.0 0.00 0.08 0.08 99 1019.9
20260831230057 68 209 3.0 5.0 0.00 0.08 0.08 99 1019.9